Date,TemperatureHighF,TemperatureAvgF,TemperatureLowF,DewpointHighF,DewpointAvgF,DewpointLowF,HumidityHigh,HumidityAvg,HumidityLow,PressureMaxIn,PressureMinIn,WindSpeedMaxMPH,WindSpeedAvgMPH,GustSpeedMaxMPH,PrecipitationSumIn
2013-1-1,19,6,-3,12,-1,-11,78,73,67,30.85,30.65,0,0,0,0.00
2013-1-2,22,16,9,14,10,2,79,74,68,30.81,30.65,1,0,3,0.00
2013-1-3,18,15,11,11,8,4,80,74,68,30.65,30.49,1,0,4,0.02
2013-1-4,24,15,9,15,8,2,80,75,65,30.61,30.48,0,0,0,0.00
2013-1-5,25,19,12,18,14,6,81,78,75,30.58,30.28,0,0,1,0.06
2013-1-6,28,24,19,22,18,13,83,79,74,30.31,30.16,0,0,2,0.08
2013-1-7,29,25,20,22,19,15,84,80,74,30.17,29.91,0,0,2,0.14
2013-1-8,30,26,20,25,21,14,86,84,80,30.22,29.82,0,0,1,0.59
2013-1-9,37,29,21,32,25,16,88,85,81,29.89,29.66,1,0,3,0.11
2013-1-10,32,25,16,23,14,8,87,66,45,30.16,29.88,3,1,14,0.00
2013-1-11,28,18,2,12,7,-5,78,62,44,30.44,30.14,4,1,13,0.00
2013-1-12,17,2,-8,7,-5,-15,79,71,64,30.63,30.42,0,0,1,0.00
2013-1-13,18,10,0,8,3,-7,79,73,61,30.68,30.53,0,0,1,0.00
2013-1-14,24,16,6,13,8,0,79,72,60,30.64,30.44,0,0,1,0.00
2013-1-15,22,8,1,13,1,-7,80,73,65,30.83,30.62,0,0,1,0.00
2013-1-16,19,10,1,12,4,-6,80,76,72,30.86,30.75,0,0,1,0.00
2013-1-17,18,12,5,10,5,-2,79,74,69,30.79,30.54,0,0,1,0.00
2013-1-18,23,11,2,15,4,-6,80,74,68,30.56,30.44,0,0,2,0.00
2013-1-19,24,9,0,15,2,-8,81,73,65,30.69,30.56,0,0,2,0.00
2013-1-20,25,9,0,18,2,-8,83,74,69,30.75,30.62,0,0,2,0.00
2013-1-21,22,7,-3,14,0,-10,82,73,68,30.62,30.50,0,0,1,0.00
2013-1-22,19,8,-3,11,1,-11,79,72,67,30.55,30.34,0,0,2,0.00
2013-1-23,26,20,12,21,14,6,82,79,74,30.34,30.08,0,0,1,0.06
2013-1-24,26,22,15,19,16,9,85,80,76,30.39,30.17,0,0,3,0.00
2013-1-25,32,20,7,23,14,1,84,79,66,30.29,30.10,0,0,2,0.00
2013-1-26,30,20,5,22,13,-2,82,76,63,30.15,30.04,0,0,2,0.02
2013-1-27,26,22,18,20,16,12,85,78,73,30.14,30.07,0,0,1,0.00
2013-1-28,26,23,20,19,17,14,82,77,72,30.09,29.98,0,0,1,0.01
2013-1-29,38,28,18,33,22,13,90,80,71,30.30,30.00,3,0,9,0.00
2013-1-30,47,41,32,32,29,26,82,63,49,30.29,30.16,3,1,15,0.00
2013-1-31,42,33,27,30,26,23,87,78,61,30.33,30.23,0,0,2,0.00
2013-2-1,45,31,22,30,24,17,88,78,52,30.55,30.31,0,0,2,0.00
2013-2-2,38,24,16,26,18,11,85,78,60,30.61,30.36,0,0,1,0.00
2013-2-3,34,25,16,25,18,10,84,76,66,30.36,30.23,0,0,3,0.00
2013-2-4,40,31,28,29,25,23,85,78,61,30.20,30.01,0,0,1,0.00
2013-2-5,38,34,30,31,28,25,88,80,73,30.01,29.83,0,0,1,0.00
2013-2-6,38,34,32,29,28,26,88,80,68,30.08,29.93,0,0,1,0.02
2013-2-7,41,33,27,35,28,18,89,81,57,30.17,29.93,1,0,5,0.08
2013-2-8,40,31,25,24,19,15,74,62,43,30.30,30.16,2,0,12,0.00
2013-2-9,44,31,20,29,21,15,84,68,47,30.31,30.13,3,0,13,0.00
2013-2-10,43,29,21,27,21,16,85,74,46,30.37,30.24,0,0,2,0.00
2013-2-11,35,24,15,25,18,9,85,78,67,30.35,30.26,0,0,2,0.00
2013-2-12,34,29,25,27,24,20,87,81,74,30.41,30.20,0,0,3,0.00
2013-2-13,46,38,25,26,24,20,90,57,39,30.42,30.17,2,0,16,0.00
2013-2-14,44,34,27,29,24,18,85,65,49,30.63,30.43,2,0,9,0.00
2013-2-15,43,30,21,29,23,16,84,76,53,30.65,30.36,0,0,3,0.00
2013-2-16,40,31,21,35,25,17,88,79,60,30.37,30.04,3,0,15,0.07
2013-2-17,44,36,24,26,22,16,78,59,34,30.18,30.08,2,0,10,0.00
2013-2-18,35,28,20,28,21,15,85,76,56,30.18,29.87,0,0,4,0.00
2013-2-19,41,32,26,27,21,14,86,64,43,30.02,29.81,2,0,12,0.00
2013-2-20,38,27,17,21,14,10,80,59,36,30.12,30.00,2,0,13,0.00
2013-2-21,38,26,15,25,17,10,83,70,46,30.11,30.00,0,0,3,0.00
2013-2-22,36,29,23,31,24,18,89,82,77,30.02,29.61,1,0,8,0.16
2013-2-23,43,33,24,30,23,18,89,69,39,30.32,29.76,3,0,14,0.00
2013-2-24,39,31,24,26,22,18,80,69,46,30.35,30.06,0,0,5,0.00
2013-2-25,40,35,30,30,25,19,87,70,46,30.19,29.91,3,0,11,0.07
2013-2-26,43,34,24,26,22,17,76,61,37,30.36,30.18,1,0,9,0.00
2013-2-27,44,34,25,27,24,20,85,69,42,30.35,30.24,0,0,3,0.00
2013-2-28,38,34,28,33,28,23,87,80,66,30.40,30.29,0,0,2,0.01
2013-3-1,45,36,30,36,32,27,89,84,69,30.39,30.25,1,0,3,0.00
2013-3-2,48,36,27,34,28,12,89,74,38,30.31,29.95,2,0,12,0.01
2013-3-3,44,37,32,25,20,11,70,50,29,30.30,30.00,4,1,24,0.00
2013-3-4,39,34,29,25,22,20,73,62,49,30.36,30.15,1,0,6,0.00
2013-3-5,41,33,26,26,22,20,81,65,43,30.16,29.93,0,0,5,0.00
2013-3-6,39,35,32,32,29,24,87,80,67,29.93,29.69,0,0,1,0.06
2013-3-7,41,36,33,32,31,28,87,80,70,30.16,29.86,0,0,1,0.00
2013-3-8,46,34,26,30,25,21,86,71,47,30.27,30.06,0,0,4,0.00
2013-3-9,48,34,20,29,22,15,85,63,36,30.47,30.27,1,0,7,0.00
2013-3-10,47,39,32,29,25,20,73,58,42,30.45,30.30,2,0,9,0.00
2013-3-11,47,39,27,29,20,13,76,48,27,30.43,30.24,3,0,11,0.00
2013-3-12,49,39,34,34,31,28,85,73,52,30.24,30.00,0,0,3,0.00
2013-3-13,54,39,30,36,32,26,89,75,51,30.17,30.05,0,0,3,0.00
2013-3-14,55,43,36,42,34,28,90,73,39,30.14,29.97,2,0,10,0.00
2013-3-15,52,39,30,40,30,26,87,73,43,30.22,30.06,2,0,10,0.00
2013-3-16,50,41,30,36,28,16,89,62,43,30.11,29.72,2,0,11,0.00
2013-3-17,44,38,34,22,18,12,60,44,29,30.07,29.76,3,1,20,0.00
2013-3-18,44,34,26,30,21,16,85,60,37,30.27,30.05,2,0,18,0.08
2013-3-19,44,33,23,30,20,12,89,60,34,30.35,29.86,2,0,11,0.07
2013-3-20,42,35,32,36,31,22,90,84,63,29.86,29.51,2,0,10,0.40
2013-3-21,43,35,26,24,18,10,71,52,27,30.17,29.83,4,1,16,0.00
2013-3-22,44,31,21,23,17,9,76,58,27,30.40,30.15,5,1,17,0.00
2013-3-23,46,33,19,22,15,10,72,49,26,30.49,30.30,2,0,10,0.00
2013-3-24,44,31,19,24,17,12,76,58,35,30.47,30.27,1,0,5,0.00
2013-3-25,49,34,21,26,19,13,81,60,26,30.31,30.07,0,0,3,0.00
2013-3-26,54,37,22,30,23,18,83,61,29,30.16,29.98,0,0,4,0.00
2013-3-27,57,41,29,32,28,24,85,63,31,30.08,29.98,0,0,5,0.00
2013-3-28,59,42,30,36,30,25,85,65,34,30.15,30.03,1,0,5,0.00
2013-3-29,63,45,30,35,29,24,87,59,24,30.28,30.15,3,1,12,0.00
2013-3-30,65,45,30,36,30,25,84,58,25,30.39,30.16,1,0,5,0.00
2013-3-31,71,46,30,38,30,25,85,59,21,30.23,29.97,1,0,4,0.00
2013-4-1,75,52,32,36,32,27,85,53,21,30.08,29.90,3,0,11,0.00
2013-4-2,67,55,42,36,32,25,69,45,22,30.10,29.99,2,1,14,0.00
2013-4-3,67,54,43,40,33,30,66,47,27,30.12,29.96,3,1,13,0.00
2013-4-4,50,46,41,45,39,33,90,77,59,29.99,29.70,0,0,1,0.09
2013-4-5,57,48,43,45,41,37,90,77,50,29.80,29.72,1,0,5,0.02
2013-4-6,57,45,35,41,33,22,90,67,27,29.86,29.70,4,1,17,0.03
2013-4-7,44,38,33,37,31,27,89,77,60,29.80,29.60,2,0,9,0.43
2013-4-8,57,45,35,36,31,26,82,60,33,30.25,29.79,2,0,12,0.00
2013-4-9,54,44,32,41,33,27,87,68,44,30.35,30.17,1,0,11,0.00
2013-4-10,54,45,38,44,35,27,89,70,40,30.18,29.85,6,1,23,0.10
2013-4-11,57,43,30,33,25,18,85,54,24,30.19,30.11,3,1,14,0.00
2013-4-12,51,40,30,32,27,23,80,61,40,30.16,29.57,1,0,7,0.00
2013-4-13,50,40,30,30,22,16,87,50,29,29.94,29.55,4,1,16,0.02
2013-4-14,49,38,28,32,24,18,75,57,30,29.99,29.91,3,0,11,0.00
2013-4-15,46,37,32,35,32,28,88,80,58,30.24,29.95,3,0,9,0.06
2013-4-16,51,39,30,33,27,16,88,65,32,30.46,30.24,2,0,9,0.00
2013-4-17,56,42,27,29,24,20,81,54,26,30.51,30.33,3,0,11,0.00
2013-4-18,60,48,35,37,31,27,76,55,33,30.37,30.12,2,0,11,0.00
2013-4-19,63,49,35,38,34,31,86,59,34,30.12,29.93,3,0,16,0.00
2013-4-20,60,52,44,34,29,26,63,43,28,30.08,29.99,3,1,15,0.00
2013-4-21,47,39,30,40,31,26,88,74,49,30.45,30.08,1,0,8,0.36
2013-4-22,61,43,26,26,20,10,87,48,15,30.60,30.41,3,1,11,0.00
2013-4-23,62,44,31,29,25,17,76,50,20,30.43,30.24,4,0,11,0.00
2013-4-24,69,50,30,31,26,16,82,46,14,30.39,29.98,2,0,15,0.00
2013-4-25,71,58,42,37,31,24,60,38,23,30.04,29.92,5,2,18,0.00
2013-4-26,74,58,42,41,32,23,77,42,16,30.15,30.04,4,1,18,0.00
2013-4-27,66,53,41,38,32,24,68,46,22,30.05,29.93,4,1,18,0.00
2013-4-28,61,49,36,34,29,23,76,48,26,30.08,29.80,4,1,15,0.00
2013-4-29,52,42,34,37,27,16,90,58,26,30.05,29.74,3,1,13,0.06
2013-4-30,52,39,26,28,22,16,82,53,25,30.46,30.05,4,1,18,0.00
2013-5-1,62,44,26,32,23,17,79,49,20,30.61,30.45,1,0,8,0.00
2013-5-2,69,53,32,35,30,24,87,47,22,30.62,30.29,1,0,7,0.00
2013-5-3,75,59,43,38,32,24,72,41,17,30.39,30.19,4,1,15,0.00
2013-5-4,77,56,35,42,34,29,83,48,18,30.37,30.06,2,0,6,0.00
2013-5-5,81,58,36,40,34,25,86,47,13,30.13,29.83,1,0,9,0.00
2013-5-6,86,63,38,42,36,29,86,44,14,29.97,29.69,2,0,14,0.00
2013-5-7,89,70,51,44,39,34,61,35,16,29.83,29.71,3,0,13,0.00
2013-5-8,88,69,50,48,39,32,72,37,15,30.00,29.83,2,0,12,0.00
2013-5-9,91,69,47,38,31,21,58,28,9,30.11,29.94,2,0,13,0.00
2013-5-10,89,67,44,46,36,25,74,37,11,30.15,30.02,3,0,11,0.00
2013-5-11,84,67,50,48,41,34,69,42,17,30.11,29.92,1,0,5,0.00
2013-5-12,75,60,49,51,43,38,79,56,28,29.99,29.89,3,0,17,0.00
2013-5-13,68,52,36,47,41,34,90,68,29,30.08,29.81,4,0,16,0.33
2013-5-14,65,49,33,40,32,27,92,58,27,30.20,30.04,3,1,13,0.00
2013-5-15,68,53,37,49,36,29,81,55,27,30.11,29.88,2,0,11,0.00
2013-5-16,65,55,47,50,44,40,88,67,42,29.94,29.86,3,0,12,0.01
2013-5-17,70,53,39,52,42,36,92,70,30,29.94,29.83,3,0,11,0.08
2013-5-18,67,57,51,43,37,33,62,48,31,30.17,29.92,3,1,12,0.00
2013-5-19,72,59,47,40,36,33,60,44,27,30.26,30.16,3,1,13,0.00
2013-5-20,73,57,38,46,39,34,89,55,28,30.28,29.81,2,0,10,0.00
2013-5-21,52,44,35,47,41,32,91,87,67,29.84,29.64,3,0,10,0.96
2013-5-22,48,41,33,42,37,30,92,87,69,30.04,29.84,1,0,6,0.22
2013-5-23,56,45,37,44,38,34,91,80,51,30.07,29.99,2,0,7,0.11
2013-5-24,62,48,33,43,36,30,92,68,35,30.04,29.92,1,0,7,0.00
2013-5-25,62,48,33,48,38,31,92,72,38,30.03,29.95,2,0,6,0.00
2013-5-26,63,51,39,50,41,36,91,70,46,30.01,29.89,2,0,7,0.00
2013-5-27,59,51,44,46,42,38,90,71,54,29.92,29.76,2,0,13,0.02
2013-5-28,63,54,43,50,44,36,92,70,40,29.81,29.71,2,0,8,0.03
2013-5-29,56,49,42,50,44,37,90,83,67,29.88,29.68,1,0,5,0.21
2013-5-30,67,51,34,44,35,28,93,59,28,30.15,29.87,4,1,13,0.00
2013-5-31,70,55,39,43,35,30,83,53,25,30.25,30.15,2,0,9,0.00
2013-6-1,72,55,40,46,40,36,88,60,28,30.22,29.96,2,0,11,0.00
2013-6-2,70,58,46,44,40,34,79,54,28,30.01,29.90,4,1,14,0.00
2013-6-3,73,58,40,46,40,34,91,55,27,30.07,29.96,4,1,15,0.00
2013-6-4,79,62,42,51,43,38,89,55,25,30.15,29.96,1,0,6,0.00
2013-6-5,81,64,46,52,45,41,87,54,25,30.03,29.92,2,0,11,0.00
2013-6-6,86,69,50,47,41,35,75,40,19,30.00,29.83,2,0,9,0.00
2013-6-7,77,68,57,50,37,29,45,33,24,29.98,29.82,4,1,21,0.00
2013-6-8,80,64,45,44,36,30,74,38,18,30.06,29.90,3,1,15,0.00
2013-6-9,75,61,44,39,34,30,73,40,20,29.98,29.85,2,0,13,0.00
2013-6-10,76,63,45,45,35,28,67,38,20,29.93,29.67,2,0,11,0.00
2013-6-11,72,58,48,47,40,33,80,52,34,29.99,29.72,6,1,18,0.09
2013-6-12,68,53,37,44,37,28,87,57,26,30.08,29.97,3,0,14,0.02
2013-6-13,72,57,42,41,38,33,79,51,27,30.09,30.00,3,1,13,0.00
2013-6-14,73,61,48,42,38,34,66,44,27,30.10,29.98,3,0,13,0.00
2013-6-15,78,60,39,53,41,35,88,54,26,30.07,29.90,1,0,6,0.00
2013-6-16,82,65,46,60,45,37,84,53,22,30.04,29.89,3,0,14,0.02
2013-6-17,77,64,50,58,48,44,85,58,34,29.98,29.80,2,0,13,0.05
2013-6-18,68,59,52,54,48,42,90,68,50,29.89,29.81,1,0,11,0.06
2013-6-19,66,58,53,48,43,39,81,59,39,29.86,29.77,2,1,16,0.01
2013-6-20,59,54,49,47,42,38,76,64,50,30.01,29.77,1,0,12,0.02
2013-6-21,67,59,49,52,44,37,82,60,44,30.07,30.01,2,0,12,0.00
2013-6-22,74,59,42,57,49,40,92,72,41,30.09,29.88,1,0,7,0.05
2013-6-23,72,63,52,56,51,42,92,68,39,29.91,29.60,1,0,4,0.01
2013-6-24,62,57,52,57,53,49,92,88,74,29.68,29.55,0,0,4,0.70
2013-6-25,64,54,42,56,49,40,93,86,61,29.84,29.68,1,0,4,0.22
2013-6-26,69,58,46,58,50,42,93,76,40,30.09,29.84,1,0,6,0.09
2013-6-27,71,59,48,61,52,44,91,78,57,30.22,30.09,0,0,2,0.03
2013-6-28,83,68,54,64,56,51,90,69,39,30.24,30.02,1,0,4,0.00
2013-6-29,90,68,55,64,57,49,93,72,26,30.07,29.91,3,0,11,0.00
2013-6-30,91,74,53,61,54,46,93,57,23,30.05,29.89,1,0,7,0.00
2013-7-1,96,74,55,62,55,46,91,57,20,30.03,29.83,1,0,4,0.00
2013-7-2,99,79,58,60,52,42,83,46,15,29.94,29.82,2,0,13,0.00
2013-7-3,91,76,61,49,42,35,57,32,17,29.98,29.81,2,0,11,0.00
2013-7-4,84,73,61,44,36,23,44,27,19,29.90,29.77,3,1,16,0.00
2013-7-5,86,72,56,50,45,40,60,40,23,29.85,29.69,2,1,13,0.00
2013-7-6,85,72,60,51,46,40,64,43,23,29.88,29.73,2,0,9,0.00
2013-7-7,84,63,52,60,51,42,91,69,25,29.90,29.77,2,0,11,0.55
2013-7-8,86,68,52,54,50,42,92,59,24,30.01,29.87,4,0,13,0.00
2013-7-9,88,70,51,61,51,45,90,56,24,30.10,29.88,0,0,5,0.00
2013-7-10,87,71,51,53,45,33,87,45,17,29.93,29.73,4,1,14,0.00
2013-7-11,79,66,54,41,35,29,55,33,18,29.90,29.75,2,0,12,0.00
2013-7-12,75,62,52,44,36,31,61,39,21,30.00,29.85,2,0,12,0.00
2013-7-13,80,65,50,48,40,32,70,44,20,30.10,29.98,2,0,12,0.00
2013-7-14,86,67,44,44,38,23,86,41,10,30.11,29.86,2,0,12,0.00
2013-7-15,82,64,52,42,38,35,60,41,19,30.05,29.92,2,1,10,0.00
2013-7-16,89,71,45,51,41,31,79,39,14,30.05,29.80,1,0,4,0.00
2013-7-17,90,72,57,58,50,42,90,50,24,30.01,29.83,2,0,11,0.04
2013-7-18,90,74,53,56,48,37,82,45,24,30.12,29.93,1,0,9,0.00
2013-7-19,97,76,53,47,39,25,62,31,9,30.05,29.85,1,0,7,0.00
2013-7-20,95,78,55,47,40,30,63,30,11,29.92,29.74,2,0,14,0.00
2013-7-21,96,80,67,48,44,38,44,30,15,29.78,29.62,3,1,13,0.00
2013-7-22,88,73,64,46,42,40,47,34,22,29.81,29.71,3,1,12,0.00
2013-7-23,96,83,59,50,44,39,62,28,15,29.94,29.76,2,0,11,0.00
2013-7-24,98,80,62,45,39,23,44,26,8,29.92,29.77,3,1,16,0.00
2013-7-25,99,83,70,42,35,20,31,20,8,29.92,29.81,3,1,18,0.00
2013-7-26,95,78,56,41,36,31,48,24,11,30.01,29.88,2,0,14,0.00
2013-7-27,90,75,61,42,33,24,38,23,11,29.99,29.76,3,1,12,0.00
2013-7-28,86,69,53,56,44,34,90,46,17,29.92,29.74,3,1,15,0.07
2013-7-29,85,64,48,61,48,38,93,64,21,29.97,29.82,2,0,10,0.09
2013-7-30,86,68,49,54,45,36,88,51,18,30.09,29.96,3,0,11,0.00
2013-7-31,90,69,51,53,45,38,78,47,17,30.12,29.93,4,0,19,0.00
2013-8-1,86,68,56,55,48,38,81,53,21,29.95,29.77,2,0,13,0.04
2013-8-2,72,64,58,58,52,48,90,67,46,30.02,29.85,2,0,10,0.08
2013-8-3,83,69,52,56,52,48,90,58,32,30.09,29.94,2,0,8,0.00
2013-8-4,83,66,55,60,54,50,91,70,37,30.04,29.93,2,0,12,0.20
2013-8-5,93,70,48,58,49,40,93,57,18,30.04,29.80,1,0,9,0.01
2013-8-6,94,74,54,52,45,33,82,42,13,29.94,29.77,2,0,7,0.00
2013-8-7,95,77,56,47,43,37,65,34,15,29.91,29.75,2,1,10,0.00
2013-8-8,95,80,69,50,46,36,46,32,13,29.89,29.73,3,1,14,0.00
2013-8-9,97,77,58,52,47,41,74,40,15,29.89,29.71,1,0,7,0.00
2013-8-10,90,73,61,62,52,45,92,52,26,30.00,29.75,3,0,6,0.21
2013-8-11,85,70,57,59,54,48,92,61,31,30.01,29.83,3,0,6,0.41
2013-8-12,87,69,52,57,51,45,92,57,25,29.99,29.85,2,0,5,0.00
2013-8-13,90,71,55,53,49,41,86,51,20,30.01,29.87,1,0,3,0.00
2013-8-14,87,70,51,56,48,44,87,50,23,29.97,29.78,2,0,5,0.00
2013-8-15,81,69,56,64,53,43,91,62,32,29.95,29.80,3,0,5,0.18
2013-8-16,87,67,47,53,49,44,93,59,26,30.02,29.86,2,0,4,0.00
2013-8-17,84,69,55,54,48,44,81,51,26,29.97,29.86,3,0,4,0.00
2013-8-18,86,67,48,49,45,40,84,50,21,30.05,29.91,3,0,4,0.00
2013-8-19,81,65,52,49,44,40,76,49,27,30.01,29.93,2,0,4,0.00
2013-8-20,84,68,56,42,38,32,58,36,16,30.06,29.93,3,1,5,0.00
2013-8-21,87,65,44,45,40,36,83,46,17,30.12,29.92,1,0,4,0.00
2013-8-22,91,69,46,49,43,36,84,45,16,30.00,29.72,1,0,4,0.00
2013-8-23,79,68,58,58,51,45,90,56,36,29.84,29.67,2,0,5,0.06
2013-8-24,78,69,54,52,46,38,72,45,27,29.81,29.68,3,1,6,0.00
2013-8-25,81,67,55,48,43,40,64,44,26,29.89,29.76,2,0,6,0.00
2013-8-26,72,61,57,59,53,46,90,75,49,29.92,29.77,1,0,3,0.12
2013-8-27,76,61,50,59,52,47,92,75,39,29.98,29.82,0,0,2,0.02
2013-8-28,74,61,53,62,54,49,91,80,53,29.92,29.80,2,0,4,0.11
2013-8-29,70,60,56,60,56,53,92,86,64,30.00,29.87,2,0,5,0.44
2013-8-30,75,62,52,55,48,40,92,64,29,30.09,29.99,2,0,5,0.00
2013-8-31,82,61,43,52,45,40,92,61,27,30.16,29.91,1,0,3,0.00
2013-9-1,91,72,50,52,47,41,92,46,18,29.97,29.69,1,0,2,0.00
2013-9-2,88,69,50,53,48,45,83,54,24,29.85,29.74,1,0,5,0.00
2013-9-3,85,67,55,56,52,47,85,62,28,29.97,29.80,4,0,6,0.00
2013-9-4,84,67,54,59,53,49,85,63,34,30.02,29.87,1,0,4,0.00
2013-9-5,86,71,59,61,56,49,89,62,29,29.99,29.77,2,0,7,0.46
2013-9-6,70,60,55,60,56,51,93,85,51,30.10,29.86,1,0,3,1.98
2013-9-7,70,59,53,58,53,50,92,82,52,30.12,30.02,1,0,2,0.23
2013-9-8,84,63,46,56,50,44,93,69,27,30.10,29.90,2,0,5,0.00
2013-9-9,87,68,54,53,49,34,81,54,15,30.00,29.83,2,0,3,0.00
2013-9-10,86,65,48,56,50,45,91,63,25,30.07,29.92,1,0,2,0.00
2013-9-11,89,66,49,55,50,45,92,63,25,30.13,29.96,1,0,3,0.00
2013-9-12,83,60,50,55,50,47,91,74,31,30.08,29.93,0,0,1,0.00
2013-9-13,94,79,60,55,50,39,75,43,16,29.86,29.67,1,0,2,0.00
2013-9-14,90,69,54,57,52,48,84,59,25,29.89,29.75,1,0,2,0.00
2013-9-15,85,68,54,55,52,44,89,61,26,29.83,29.58,6,0,11,0.36
2013-9-16,74,60,51,57,50,44,93,73,35,29.83,29.68,2,0,5,0.04
2013-9-17,69,57,46,51,45,40,91,66,45,29.82,29.67,2,0,7,0.00
2013-9-18,68,57,44,42,38,35,74,50,33,30.08,29.78,2,0,7,0.00
2013-9-19,69,50,36,44,38,32,90,66,33,30.17,29.95,2,0,3,0.00
2013-9-20,73,52,36,48,40,33,92,67,28,29.95,29.57,1,0,2,0.00
2013-9-21,73,58,48,49,41,35,86,57,26,29.65,29.55,3,1,10,0.00
2013-9-22,57,48,40,49,42,35,91,80,55,29.70,29.59,2,0,3,0.08
2013-9-23,59,47,38,48,41,36,93,81,58,29.93,29.70,2,0,3,0.01
2013-9-24,64,49,39,41,37,32,86,66,31,29.93,29.77,3,0,5,0.00
2013-9-25,64,50,39,37,33,25,85,57,25,29.96,29.82,4,1,10,0.00
2013-9-26,60,51,36,44,34,27,87,55,37,30.11,29.95,2,0,4,0.00
2013-9-27,56,44,32,43,37,29,91,78,48,30.10,29.87,2,0,6,0.01
2013-9-28,50,46,43,47,44,41,92,91,88,29.87,29.38,2,0,3,0.90
2013-9-29,55,47,41,47,43,39,93,85,59,29.57,29.29,4,0,6,0.33
2013-9-30,57,45,38,44,38,32,93,77,39,29.84,29.29,4,0,10,0.04
2013-10-1,56,40,29,39,32,26,92,76,39,30.14,29.83,3,0,4,0.01
2013-10-2,46,40,35,40,36,32,91,86,71,30.20,30.13,4,1,5,0.11
2013-10-3,60,40,33,38,33,30,92,77,37,30.49,30.20,2,0,4,0.00
2013-10-4,60,42,28,42,34,25,92,75,34,30.62,30.43,5,0,7,0.01
2013-10-5,58,43,33,48,37,31,92,81,53,30.47,30.33,1,0,3,0.00
2013-10-6,63,44,31,44,37,29,93,79,43,30.33,29.91,5,1,7,0.00
2013-10-7,60,45,36,43,36,33,93,73,43,29.91,29.82,3,0,7,0.00
2013-10-8,56,43,34,44,32,25,92,69,33,30.12,29.87,3,0,8,0.07
2013-10-9,58,43,30,42,32,27,89,68,36,30.22,29.90,2,0,5,0.00
2013-10-10,60,45,32,38,32,28,87,62,30,30.08,29.87,3,0,5,0.00
2013-10-11,56,39,26,38,29,23,92,71,33,30.25,30.08,3,0,6,0.00
2013-10-12,54,43,34,41,35,31,90,74,44,30.22,30.07,2,0,3,0.04
2013-10-13,61,44,32,36,31,27,88,64,28,30.39,30.20,3,0,6,0.00
2013-10-14,59,39,26,37,29,22,86,71,34,30.54,30.38,4,0,6,0.00
2013-10-15,58,42,28,42,32,23,86,71,41,30.52,30.20,3,0,5,0.00
2013-10-16,64,48,34,40,35,30,89,63,32,30.28,30.12,4,1,8,0.00
2013-10-17,62,40,28,38,31,25,89,72,34,30.37,30.24,4,1,7,0.00
2013-10-18,60,39,28,39,30,23,86,73,36,30.42,30.23,3,0,4,0.00
2013-10-19,60,39,28,43,31,23,88,75,38,30.29,30.14,2,0,4,0.00
2013-10-20,70,45,30,46,35,26,89,72,37,30.29,30.09,2,0,4,0.00
2013-10-21,67,45,32,46,37,28,89,75,41,30.29,30.14,2,0,5,0.00
2013-10-22,64,44,31,45,36,27,89,77,43,30.30,30.13,2,0,3,0.00
2013-10-23,63,42,30,45,34,26,88,77,41,30.26,30.13,2,0,3,0.00
2013-10-24,60,41,28,41,33,25,88,75,39,30.25,30.10,2,0,3,0.00
2013-10-25,60,42,27,41,34,24,90,74,40,30.37,30.20,2,0,4,0.00
2013-10-26,58,38,28,39,31,24,88,76,38,30.44,30.10,2,0,3,0.00
2013-10-27,54,46,32,37,32,29,90,62,45,30.10,29.90,4,1,9,0.00
2013-10-28,54,45,33,32,26,21,74,49,28,30.13,29.98,3,1,10,0.00
2013-10-29,50,35,26,29,24,20,82,64,38,30.11,29.98,3,0,5,0.00
2013-10-30,49,33,22,32,25,18,84,73,42,30.17,30.06,3,0,4,0.00
2013-10-31,59,44,30,38,30,25,86,60,39,30.18,30.06,3,1,9,0.00
2013-11-1,51,42,30,35,30,24,81,64,44,30.30,29.96,2,0,4,0.00
2013-11-2,45,41,38,42,36,29,91,83,60,29.96,29.50,3,0,6,0.44
2013-11-3,45,36,26,33,26,21,83,68,39,30.11,29.79,2,0,11,0.00
2013-11-4,45,31,23,24,21,16,84,68,31,30.25,30.11,3,0,6,0.00
2013-11-5,37,33,28,30,27,23,86,80,70,30.30,30.17,4,0,6,0.03
2013-11-6,39,34,28,30,28,24,87,79,66,30.44,30.31,3,1,6,0.01
2013-11-7,36,34,32,32,30,29,89,88,85,30.32,29.82,1,0,2,0.13
2013-11-8,37,33,28,34,30,24,90,88,87,30.26,29.96,1,0,3,0.00
2013-11-9,39,32,23,33,28,19,89,83,65,30.33,30.22,1,0,1,0.01
2013-11-10,38,36,33,35,32,30,89,87,84,30.36,30.21,0,0,1,0.15
2013-11-11,43,39,36,39,36,32,89,88,85,30.46,30.33,0,0,2,0.00
2013-11-12,44,41,39,40,38,36,90,88,85,30.39,30.27,0,0,1,0.00
2013-11-13,49,42,33,41,36,30,90,82,59,30.40,30.31,3,0,4,0.00
2013-11-14,51,36,28,37,30,24,89,81,48,30.30,29.97,2,0,5,0.00
2013-11-15,47,39,30,30,26,22,89,62,41,29.97,29.27,4,1,9,0.03
2013-11-16,47,36,29,32,26,19,88,68,38,29.68,29.25,2,0,6,0.00
2013-11-17,35,30,25,30,25,22,88,82,69,29.93,29.68,1,0,2,0.01
2013-11-18,37,30,22,33,27,18,89,87,83,29.97,29.61,0,0,1,0.10
2013-11-19,48,36,30,39,25,11,92,69,37,30.03,29.56,3,1,7,0.24
2013-11-20,32,24,14,11,7,-1,77,50,24,30.64,30.03,2,1,9,0.00
2013-11-21,31,18,10,13,9,4,79,68,37,30.85,30.64,3,0,5,0.00
2013-11-22,33,21,12,17,12,7,80,70,49,30.97,30.81,1,0,4,0.00
2013-11-23,35,22,12,22,14,6,80,72,49,30.81,30.46,2,0,3,0.00
2013-11-24,35,25,17,22,18,12,82,74,57,30.53,30.42,1,0,2,0.00
2013-11-25,39,29,22,26,21,17,84,74,53,30.57,30.49,1,0,2,0.00
2013-11-26,36,26,19,27,20,14,84,79,64,30.52,30.30,1,0,2,0.00
2013-11-27,38,26,18,28,21,13,85,80,63,30.37,30.23,2,0,3,0.00
2013-11-28,38,26,17,28,20,12,85,79,64,30.33,30.24,1,0,2,0.00
2013-11-29,34,28,24,26,23,20,87,82,74,30.40,30.31,1,0,3,0.00
2013-11-30,33,31,28,27,26,24,86,82,75,30.41,30.22,1,0,2,0.00
2013-12-1,34,32,30,30,28,26,90,87,83,30.22,29.67,1,0,1,0.76
2013-12-2,35,27,21,30,20,7,90,76,53,30.19,29.67,5,1,12,0.00
2013-12-3,25,21,18,8,4,2,55,49,41,30.46,30.19,5,3,12,0.00
2013-12-4,20,7,-3,5,-1,-10,77,68,46,30.58,30.43,3,0,14,0.00
2013-12-5,16,2,-6,4,-6,-13,75,70,51,30.56,30.45,0,0,0,0.00
2013-12-6,17,4,-7,3,-4,-14,76,69,51,30.55,30.43,1,0,2,0.00
2013-12-7,18,6,-7,-6,-10,-14,73,49,27,30.55,30.42,5,2,17,0.00
2013-12-8,17,6,-6,3,-4,-13,75,64,36,30.66,30.51,2,0,3,0.00
2013-12-9,15,4,-5,4,-4,-12,76,69,56,30.69,30.56,3,0,4,0.00
2013-12-10,19,6,-1,6,-1,-8,77,71,55,30.66,30.52,2,0,3,0.00
2013-12-11,22,11,-1,13,4,-8,79,73,64,30.68,30.49,1,0,1,0.00
2013-12-12,26,18,6,17,12,0,81,75,63,30.49,30.26,1,0,2,0.00
2013-12-13,31,21,16,20,16,11,83,79,63,30.56,30.27,3,0,5,0.00
2013-12-14,34,24,19,22,18,14,84,79,61,30.55,30.38,2,0,3,0.00
2013-12-15,32,28,26,27,24,21,90,85,80,30.39,30.27,5,1,10,0.00
2013-12-16,33,26,21,28,23,18,90,87,83,30.51,30.39,1,0,3,0.00
2013-12-17,29,27,22,26,23,19,90,87,84,30.44,30.05,2,0,4,0.00
2013-12-18,39,29,26,27,19,4,90,69,37,30.27,29.95,4,1,15,0.00
2013-12-19,30,23,12,10,4,0,74,45,28,30.39,30.20,4,1,11,0.00
2013-12-20,22,17,10,16,11,4,81,77,68,30.19,29.77,0,0,2,0.14
2013-12-21,26,17,5,19,11,-1,83,77,67,30.26,29.96,1,0,2,0.00
2013-12-22,30,24,16,23,18,11,85,80,73,30.40,30.25,0,0,2,0.00
2013-12-23,33,25,17,28,21,12,91,84,76,30.48,30.16,3,0,5,0.10
2013-12-24,32,18,8,25,13,2,87,82,74,30.73,30.48,2,0,3,0.00
2013-12-25,27,15,2,21,10,-4,83,78,69,30.77,30.55,1,0,1,0.00
2013-12-26,30,21,12,23,16,6,84,81,72,30.55,30.45,2,0,2,0.00
2013-12-27,28,20,9,24,16,4,88,83,78,30.45,30.22,1,0,2,0.06
2013-12-28,28,19,9,23,14,3,87,82,76,30.65,30.39,1,0,2,0.00
2013-12-29,26,21,14,21,17,9,86,83,80,30.57,30.35,1,0,2,0.00
2013-12-30,27,24,22,22,20,18,86,83,76,30.44,30.23,2,0,3,0.00
2013-12-31,31,24,13,25,20,8,86,83,78,30.50,30.20,4,0,5,0.00
2014-1-1,32,22,10,24,17,4,85,80,70,30.60,30.44,2,0,3,0.00
2014-1-2,32,28,23,26,23,19,87,84,77,30.44,29.88,0,0,2,0.15